• In United Kingdom
  • List of Countries
  • For 7 days
  • Water Temperature
  • Satellite Maps
  • Weather Map
  • Weather Widgets
  • user-avatar
    Login

    Hourly Weather Rawson

    Today, 16 January, Tuesday

    Time Temperature Precipitation Wind Pressure Humidity
    00:00 +23°C° 0 mm 4 mps 756 mmHg 32%
    01:00 +23°C° 0 mm 4 mps 756 mmHg 33%
    02:00 +23°C° 0 mm 4 mps 756 mmHg 33%
    03:00 +23°C° 0 mm 4 mps 757 mmHg 32%
    04:00 +23°C° 0 mm 5 mps 757 mmHg 31%
    05:00 +22°C° 0 mm 6 mps 757 mmHg 30%
    06:00 +23°C° 0 mm 6 mps 757 mmHg 29%
    07:00 +23°C° 0 mm 6 mps 757 mmHg 29%
    08:00 +23°C° 0 mm 6 mps 758 mmHg 28%
    09:00 +26°C° 0 mm 6 mps 757 mmHg 24%
    10:00 +27°C° 0 mm 6 mps 757 mmHg 21%
    11:00 +29°C° 0 mm 6 mps 757 mmHg 17%
    12:00 +30°C° 0 mm 6 mps 757 mmHg 16%
    13:00 +32°C° 0 mm 5 mps 756 mmHg 15%
    14:00 +33°C° 0 mm 5 mps 756 mmHg 14%
    15:00 +33°C° 0 mm 5 mps 756 mmHg 14%
    16:00 +33°C° 0 mm 5 mps 755 mmHg 13%
    17:00 +34°C° 0 mm 6 mps 755 mmHg 13%
    18:00 +33°C° 0 mm 6 mps 755 mmHg 15%
    19:00 +30°C° 0 mm 6 mps 755 mmHg 18%
    20:00 +29°C° 0 mm 7 mps 755 mmHg 21%
    21:00 +28°C° 0 mm 6 mps 755 mmHg 22%
    22:00 +27°C° 0 mm 6 mps 756 mmHg 24%
    23:00 +27°C° 0 mm 6 mps 757 mmHg 26%

    Tomorrow, 17 January, Wednesday

    Time Temperature Precipitation Wind Pressure Humidity
    00:00 +26°C° 0 mm 6 mps 757 mmHg 27%
    01:00 +24°C° 0 mm 7 mps 757 mmHg 29%
    02:00 +24°C° 0 mm 7 mps 757 mmHg 30%
    03:00 +23°C° 0 mm 7 mps 757 mmHg 32%
    04:00 +23°C° 0 mm 6 mps 757 mmHg 34%
    05:00 +22°C° 0 mm 6 mps 757 mmHg 36%
    06:00 +22°C° 0 mm 7 mps 758 mmHg 34%
    07:00 +23°C° 0 mm 7 mps 758 mmHg 33%
    08:00 +23°C° 0 mm 8 mps 758 mmHg 32%
    09:00 +24°C° 0 mm 8 mps 758 mmHg 28%
    10:00 +27°C° 0 mm 7 mps 758 mmHg 23%
    11:00 +28°C° 0 mm 7 mps 758 mmHg 19%
    12:00 +29°C° 0 mm 7 mps 757 mmHg 18%
    13:00 +32°C° 0 mm 7 mps 756 mmHg 17%
    14:00 +33°C° 0 mm 7 mps 756 mmHg 16%
    15:00 +33°C° 0 mm 8 mps 755 mmHg 17%
    16:00 +33°C° 0 mm 9 mps 755 mmHg 17%
    17:00 +33°C° 0 mm 10 mps 754 mmHg 18%
    18:00 +32°C° 0 mm 10 mps 755 mmHg 20%
    19:00 +31°C° 0 mm 11 mps 755 mmHg 23%
    20:00 +29°C° 0 mm 12 mps 756 mmHg 25%
    21:00 +28°C° 0 mm 12 mps 756 mmHg 27%
    22:00 +27°C° 0 mm 11 mps 756 mmHg 29%
    23:00 +26°C° 0 mm 10 mps 757 mmHg 31%

    Day after tomorrow, 18 January, Thursday

    Time Temperature Precipitation Wind Pressure Humidity
    00:00 +24°C° 0 mm 10 mps 757 mmHg 33%
    01:00 +24°C° 0 mm 9 mps 757 mmHg 35%
    02:00 +23°C° 0 mm 9 mps 757 mmHg 37%
    03:00 +23°C° 0 mm 8 mps 757 mmHg 38%
    04:00 +23°C° 0 mm 8 mps 758 mmHg 40%
    05:00 +22°C° 0 mm 7 mps 758 mmHg 41%
    06:00 +23°C° 0 mm 7 mps 758 mmHg 39%
    07:00 +23°C° 0 mm 6 mps 759 mmHg 38%
    08:00 +24°C° 0 mm 6 mps 759 mmHg 36%
    09:00 +26°C° 0 mm 5 mps 759 mmHg 33%
    10:00 +28°C° 0 mm 4 mps 759 mmHg 30%
    11:00 +29°C° 0 mm 3 mps 759 mmHg 28%
    12:00 +30°C° 0 mm 3 mps 759 mmHg 25%
    13:00 +32°C° 0 mm 4 mps 758 mmHg 23%
    14:00 +34°C° 0 mm 4 mps 758 mmHg 21%
    15:00 +34°C° 0 mm 5 mps 757 mmHg 20%
    16:00 +35°C° 0 mm 6 mps 756 mmHg 19%
    17:00 +36°C° 0 mm 6 mps 756 mmHg 18%
    18:00 +35°C° 0 mm 6 mps 756 mmHg 18%
    19:00 +35°C° 0 mm 6 mps 756 mmHg 17%
    20:00 +34°C° 0 mm 6 mps 756 mmHg 17%
    21:00 +33°C° 0 mm 7 mps 756 mmHg 18%
    22:00 +32°C° 0 mm 8 mps 757 mmHg 19%
    23:00 +31°C° 0 mm 8 mps 757 mmHg 20%

    19 January, Friday

    Time Temperature Precipitation Wind Pressure Humidity
    00:00 +29°C° 0 mm 7 mps 757 mmHg 22%
    01:00 +28°C° 0 mm 6 mps 757 mmHg 24%
    02:00 +27°C° 0 mm 4 mps 757 mmHg 26%
    03:00 +26°C° 0 mm 5 mps 758 mmHg 29%
    04:00 +26°C° 0 mm 5 mps 758 mmHg 31%
    05:00 +25°C° 0 mm 5 mps 758 mmHg 34%
    06:00 +26°C° 0 mm 5 mps 758 mmHg 34%
    07:00 +26°C° 0 mm 5 mps 758 mmHg 33%
    08:00 +27°C° 0 mm 6 mps 759 mmHg 33%
    09:00 +28°C° 0 mm 5 mps 758 mmHg 30%
    10:00 +30°C° 0 mm 5 mps 758 mmHg 27%
    11:00 +32°C° 0 mm 4 mps 757 mmHg 25%
    12:00 +34°C° 0 mm 4 mps 757 mmHg 22%
    13:00 +35°C° 0 mm 5 mps 756 mmHg 19%
    14:00 +37°C° 0 mm 5 mps 755 mmHg 16%
    15:00 +37°C° 0 mm 5 mps 755 mmHg 15%
    16:00 +39°C° 0 mm 5 mps 754 mmHg 14%
    17:00 +38°C° 0 mm 4 mps 753 mmHg 13%
    18:00 +37°C° 0 mm 5 mps 753 mmHg 16%
    19:00 +36°C° 0 mm 6 mps 753 mmHg 19%
    20:00 +34°C° 0 mm 7 mps 753 mmHg 22%
    21:00 +33°C° 0 mm 8 mps 753 mmHg 24%
    22:00 +32°C° 0 mm 8 mps 753 mmHg 27%
    23:00 +31°C° 0 mm 8 mps 753 mmHg 29%

    20 January, Saturday

    Time Temperature Precipitation Wind Pressure Humidity
    00:00 +29°C° 0 mm 8 mps 753 mmHg 32%
    01:00 +29°C° 0 mm 7 mps 753 mmHg 34%
    02:00 +28°C° 0 mm 6 mps 753 mmHg 37%
    03:00 +28°C° 0 mm 5 mps 753 mmHg 37%
    04:00 +27°C° 0 mm 5 mps 753 mmHg 38%
    05:00 +27°C° 0 mm 5 mps 754 mmHg 39%
    06:00 +28°C° 0 mm 7 mps 754 mmHg 37%
    07:00 +28°C° 0 mm 9 mps 755 mmHg 35%
    08:00 +29°C° 0 mm 11 mps 755 mmHg 33%
    09:00 +28°C° 0 mm 11 mps 756 mmHg 35%
    10:00 +27°C° 0 mm 11 mps 756 mmHg 37%
    11:00 +27°C° 0 mm 11 mps 757 mmHg 40%
    12:00 +24°C° 0 mm 11 mps 757 mmHg 45%
    13:00 +23°C° 0 mm 11 mps 757 mmHg 51%
    14:00 +22°C° 0 mm 11 mps 758 mmHg 57%
    15:00 +21°C° 0.2 mm 11 mps 758 mmHg 58%
    16:00 +19°C° 0.2 mm 10 mps 758 mmHg 60%
    17:00 +18°C° 0.2 mm 10 mps 758 mmHg 62%
    18:00 +18°C° 0 mm 8 mps 758 mmHg 61%
    19:00 +18°C° 0 mm 7 mps 758 mmHg 60%
    20:00 +19°C° 0 mm 5 mps 759 mmHg 59%
    21:00 +19°C° 0 mm 5 mps 758 mmHg 60%
    22:00 +17°C° 0 mm 5 mps 758 mmHg 61%
    23:00 +17°C° 0 mm 6 mps 758 mmHg 62%

    21 January, Sunday

    Time Temperature Precipitation Wind Pressure Humidity
    00:00 +17°C° 0 mm 5 mps 758 mmHg 64%
    01:00 +17°C° 0 mm 5 mps 757 mmHg 65%
    02:00 +18°C° 0 mm 4 mps 756 mmHg 67%
    03:00 +18°C° 0 mm 4 mps 756 mmHg 69%
    04:00 +17°C° 0 mm 3 mps 755 mmHg 70%
    05:00 +17°C° 0 mm 2 mps 755 mmHg 72%
    06:00 +18°C° 0 mm 3 mps 755 mmHg 67%
    07:00 +20°C° 0 mm 3 mps 755 mmHg 62%
    08:00 +21°C° 0 mm 4 mps 755 mmHg 58%
    09:00 +24°C° 0 mm 3 mps 754 mmHg 51%
    10:00 +26°C° 0 mm 3 mps 754 mmHg 44%
    11:00 +29°C° 0 mm 2 mps 753 mmHg 37%
    12:00 +30°C° 0 mm 3 mps 753 mmHg 33%
    13:00 +33°C° 0 mm 3 mps 752 mmHg 30%
    14:00 +34°C° 0 mm 3 mps 752 mmHg 27%
    15:00 +34°C° 0 mm 4 mps 752 mmHg 24%
    16:00 +35°C° 0 mm 5 mps 752 mmHg 21%
    17:00 +35°C° 0 mm 5 mps 752 mmHg 18%
    18:00 +34°C° 0 mm 6 mps 752 mmHg 25%
    19:00 +32°C° 0 mm 6 mps 752 mmHg 32%
    20:00 +29°C° 0 mm 6 mps 752 mmHg 40%
    21:00 +28°C° 0 mm 6 mps 752 mmHg 42%
    22:00 +27°C° 0 mm 6 mps 752 mmHg 45%
    23:00 +26°C° 0 mm 6 mps 752 mmHg 48%
    Show more